Palacios, TX

6:24 PM CST on February 06, 2016 (GMT -0600)
Palacios Municipal

Weather History for KPSX - January, 2015

Change the Weather History Date:

Friday, January 2, 2015

  Actual Average Record
Temperature  
Mean Temperature 48 °F -  
Max Temperature 51 °F 61 °F 81 °F (2006)
Min Temperature 46 °F 45 °F 19 °F (1979)
Degree Days  
Heating Degree Days 16    
Moisture  
Dew Point 48 °F    
Average Humidity 97    
Maximum Humidity 100    
Minimum Humidity 92    
Precipitation  
Precipitation 0.39 in - - ()
Sea Level Pressure  
Sea Level Pressure 30.03 in    
Wind  
Wind Speed 10 mph (North)    
Max Wind Speed 13 mph    
Max Gust Speed -    
Visibility 6 miles    
Events Rain    
Averages and records for this station are not official NWS values.
T = Trace of Precipitation, MM = Missing Value Source: NWS Daily Summary

Daily Weather History Graph

Daily Weather History Graph

Search for Another Location

Airport or City:

Trip Planner

Search our weather history database for the weather conditions in past years. The results will help you decide how hot, cold, wet, or windy it might be!

Date:

Astronomy

Jan. 02, 2015 Rise Set
Actual Time 7:18 AM CST 5:39 PM CST
Civil Twilight 6:52 AM CST 6:05 PM CST
Nautical Twilight 6:23 AM CST 6:35 PM CST
Astronomical Twilight 5:54 AM CST 7:03 PM CST
Moon 3:54 PM CST (1/2) 4:52 AM CST (1/2)
Length of Visible Light 11h 13m
Length of Day
10h 21m
Waxing Gibbous, 94% of the Moon is Illuminated
Jan 2
Waxing Gibbous
Jan 4
Full
Jan 13
Last Quarter
Jan 20
New
Jan 26
First Quarter

Hourly Weather History & Observations

Time (CST) Temp. Windchill Dew Point Humidity Pressure Visibility Wind Dir Wind Speed Gust Speed Precip Events Conditions
12:53 AM 46.9 °F - 46.0 °F 97% 30.10 in 3.0 mi North 9.2 mph - N/A   Overcast
1:53 AM 46.0 °F 41.0 °F 45.0 °F 96% 30.09 in 5.0 mi North 10.4 mph - N/A   Overcast
2:53 AM 46.9 °F - 46.0 °F 97% 30.09 in 4.0 mi North 12.7 mph - N/A   Overcast
3:19 AM 46.9 °F - 46.0 °F 97% 30.09 in 4.0 mi North 10.4 mph - N/A   Overcast
3:53 AM 46.9 °F - 46.0 °F 97% 30.09 in 3.0 mi North 12.7 mph - 0.00 in Rain Light Rain
4:35 AM 46.0 °F 40.6 °F 45.0 °F 96% 30.09 in 6.0 mi North 11.5 mph - 0.00 in   Overcast
4:53 AM 46.0 °F 41.0 °F 46.0 °F 100% 30.09 in 7.0 mi North 10.4 mph - 0.00 in   Overcast
5:04 AM 46.0 °F 41.0 °F 45.0 °F 96% 30.09 in 9.0 mi North 10.4 mph - N/A   Overcast
5:53 AM 46.0 °F 40.6 °F 45.0 °F 96% 30.07 in 4.0 mi NNE 11.5 mph - N/A   Overcast
6:43 AM 46.9 °F - 46.0 °F 97% 30.06 in 10.0 mi NNE 11.5 mph - N/A   Overcast
6:53 AM 46.9 °F - 46.0 °F 97% 30.07 in 10.0 mi NNE 9.2 mph - N/A   Overcast
7:16 AM 48.0 °F - 46.9 °F 96% 30.08 in 10.0 mi NNE 9.2 mph - N/A   Overcast
7:53 AM 48.0 °F - 46.9 °F 96% 30.09 in 10.0 mi North 6.9 mph - N/A   Overcast
8:53 AM 48.2 °F - 48.2 °F 100% 30.11 in 10.0 mi NNW 6.9 mph - N/A   Overcast
9:19 AM 48.9 °F - 48.0 °F 97% 30.11 in 2.5 mi NNW 8.1 mph - 0.00 in Rain Light Rain
9:29 AM 48.9 °F - 48.0 °F 97% 30.12 in 1.8 mi NW 5.8 mph - 0.01 in Rain Light Rain
9:35 AM 48.9 °F - 48.0 °F 97% 30.13 in 3.0 mi NW 6.9 mph - 0.01 in Rain Light Rain
9:53 AM 48.9 °F - 48.0 °F 97% 30.13 in 4.0 mi NW 6.9 mph - 0.01 in Rain Light Rain
10:01 AM 48.9 °F - 48.0 °F 97% 30.13 in 1.8 mi NNW 6.9 mph - 0.02 in Rain Rain
10:15 AM 48.9 °F - 48.0 °F 97% 30.12 in 5.0 mi NNW 8.1 mph - 0.03 in Rain Light Rain
10:32 AM 48.9 °F - 48.0 °F 97% 30.12 in 10.0 mi North 6.9 mph - 0.03 in   Overcast
10:53 AM 48.9 °F - 48.0 °F 97% 30.11 in 10.0 mi NNW 8.1 mph - 0.03 in   Overcast
11:53 AM 48.9 °F - 48.0 °F 97% 30.07 in 4.0 mi North 6.9 mph - 0.01 in Rain Light Rain
12:53 PM 48.9 °F - 48.0 °F 97% 30.03 in 6.0 mi NNW 9.2 mph - 0.03 in   Overcast
1:53 PM 48.9 °F - 48.0 °F 97% 30.01 in 3.0 mi NNW 10.4 mph - 0.01 in Rain Light Rain
2:28 PM 50.0 °F - 48.0 °F 93% 29.99 in 3.0 mi NNW 9.2 mph - 0.04 in Rain Heavy Rain
2:32 PM 50.0 °F - 48.0 °F 93% 29.98 in 1.8 mi North 10.4 mph - 0.09 in Rain Heavy Rain
2:48 PM 50.0 °F - 48.2 °F 94% 29.98 in 3.0 mi North 10.4 mph - 0.15 in Rain Rain
2:53 PM 50.0 °F - 48.0 °F 93% 29.98 in 6.0 mi North 11.5 mph - 0.15 in Rain Light Rain
3:53 PM 50.0 °F - 48.9 °F 96% 29.96 in 10.0 mi NNE 10.4 mph - 0.00 in   Overcast
4:53 PM 51.1 °F - 48.9 °F 92% 29.96 in 10.0 mi North 9.2 mph - N/A   Overcast
5:25 PM 50.0 °F - 48.9 °F 96% 29.96 in 2.5 mi North 9.2 mph - 0.01 in Rain Light Rain
5:32 PM 50.0 °F - 48.9 °F 96% 29.95 in 3.0 mi North 10.4 mph - 0.02 in Rain Rain
5:53 PM 50.0 °F - 48.9 °F 96% 29.94 in 10.0 mi North 9.2 mph - 0.03 in   Overcast
6:29 PM 50.0 °F - 48.9 °F 96% 29.94 in 8.0 mi North 8.1 mph - 0.00 in Rain Light Rain
6:53 PM 50.0 °F - 48.9 °F 96% 29.95 in 10.0 mi NNW 10.4 mph - 0.00 in   Overcast
7:10 PM 50.0 °F - 48.9 °F 96% 29.95 in 10.0 mi NNW 12.7 mph - N/A   Overcast
7:38 PM 48.9 °F - 48.0 °F 97% 29.96 in 4.0 mi NNW 11.5 mph - 0.04 in Rain Heavy Rain
7:53 PM 48.9 °F - 48.9 °F 100% 29.95 in 5.0 mi NNW 11.5 mph - 0.06 in Rain Rain
8:08 PM 48.9 °F - 48.0 °F 97% 29.95 in 5.0 mi North 12.7 mph - 0.04 in Rain Light Rain
8:48 PM 48.2 °F - 48.2 °F 100% 29.94 in 5.0 mi North 9.2 mph - 0.06 in Rain Light Rain
8:53 PM 48.9 °F - 48.0 °F 97% 29.94 in 6.0 mi North 10.4 mph - 0.06 in Rain Light Rain
9:53 PM 48.9 °F - 48.0 °F 97% 29.92 in 10.0 mi North 11.5 mph - 0.00 in   Overcast
10:53 PM 48.9 °F - 48.0 °F 97% 29.92 in 10.0 mi NNW 9.2 mph - N/A   Overcast
11:11 PM 48.9 °F - 48.0 °F 97% 29.92 in 10.0 mi NW 10.4 mph - N/A   Overcast
11:53 PM 48.2 °F - 48.2 °F 100% 29.93 in 10.0 mi NW 12.7 mph - N/A   Overcast